Weather History for Manistique, MI

Change the Weather History Date:

Monday, March 18, 2013

  Actual Average Record
Temperature  
Mean Temperature 27 °F -  
Max Temperature 33 °F 35 °F 55 °F (2012)
Min Temperature 21 °F 15 °F -12 °F (1959)
Degree Days  
Heating Degree Days 38    
Moisture  
Dew Point 20 °F    
Average Humidity 75    
Maximum Humidity 93    
Minimum Humidity 56    
Precipitation  
Precipitation 0.00 in - - ()
Sea Level Pressure  
Sea Level Pressure 29.83 in    
Wind  
Wind Speed 15 mph (ESE)    
Max Wind Speed 23 mph    
Max Gust Speed 31 mph    
Visibility 8 miles    
Events Snow    
Averages and records for this station are not official NWS values.
T = Trace of Precipitation, MM = Missing Value Source: NWS Daily Summary

Daily Weather History Graph

Daily Weather History Graph

Search for Another Location

Airport:

Trip Planner

Search our weather history database for the weather conditions in past years. The results will help you decide how hot, cold, wet, or windy it might be!

Date:

Astronomy

Mar. 18, 2013 Rise Set
Actual Time 7:51 AM EDT 7:54 PM EDT
Civil Twilight 7:21 AM EDT 8:24 PM EDT
Nautical Twilight 6:46 AM EDT 8:59 PM EDT
Astronomical Twilight 6:10 AM EDT 9:35 PM EDT
Moon 11:32 AM EDT (3/18) 2:11 AM EDT (3/18)
Length of Visible Light 13h 03m
Length of Day
12h 03m
Waxing Crescent, 40% of the Moon is Illuminated
Mar 18
Waxing Crescent
Mar 19
First Quarter
Mar 27
Full
Apr 3
Last Quarter
Apr 10
New

Hourly Weather History & Observations

Time (EDT) Temp. Windchill Dew Point Humidity Pressure Visibility Wind Dir Wind Speed Gust Speed Precip Events Conditions
12:14 AM 21.2 °F 8.3 °F 12.2 °F 68% 30.16 in 10.0 mi ESE 13.8 mph 18.4 mph N/A   Clear
12:35 AM 21.2 °F 9.5 °F 14.0 °F 74% 30.15 in 10.0 mi ESE 11.5 mph 18.4 mph N/A   Clear
12:54 AM 21.2 °F 9.5 °F 15.8 °F 80% 30.14 in 10.0 mi ESE 11.5 mph - N/A   Clear
1:14 AM 21.2 °F 9.5 °F 15.8 °F 80% 30.13 in 10.0 mi SE 11.5 mph - N/A   Clear
1:35 AM 23.0 °F 12.4 °F 15.8 °F 74% 30.13 in 10.0 mi ESE 10.4 mph - N/A   Clear
1:54 AM 24.8 °F 14.0 °F 15.8 °F 69% 30.12 in 10.0 mi SE 11.5 mph - N/A   Scattered Clouds
2:15 AM 24.8 °F 12.4 °F 15.8 °F 69% 30.12 in 10.0 mi SSE 15.0 mph 18.4 mph N/A   Scattered Clouds
2:34 AM 24.8 °F 14.0 °F 15.8 °F 69% 30.11 in 10.0 mi SE 11.5 mph - N/A   Clear
2:55 AM 26.6 °F 14.3 °F 15.8 °F 64% 30.10 in 10.0 mi SSE 16.1 mph 19.6 mph N/A   Scattered Clouds
3:14 AM 24.8 °F 12.4 °F 15.8 °F 69% 30.09 in 10.0 mi SE 15.0 mph 20.7 mph N/A   Scattered Clouds
3:34 AM 24.8 °F 13.4 °F 15.8 °F 69% 30.09 in 10.0 mi SE 12.7 mph 21.9 mph N/A   Clear
3:55 AM 24.8 °F 12.4 °F 15.8 °F 69% 30.09 in 10.0 mi SE 15.0 mph 19.6 mph N/A   Clear
4:14 AM 23.0 °F 10.1 °F 14.0 °F 68% 30.08 in 10.0 mi SE 15.0 mph - N/A   Clear
4:35 AM 23.0 °F 10.6 °F 15.8 °F 74% 30.07 in 10.0 mi ESE 13.8 mph 18.4 mph N/A   Clear
4:54 AM 23.0 °F 9.6 °F 14.0 °F 68% 30.07 in 10.0 mi SE 16.1 mph 20.7 mph N/A   Clear
5:14 AM 23.0 °F 10.6 °F 12.2 °F 63% 30.06 in 10.0 mi SE 13.8 mph 18.4 mph N/A   Clear
5:34 AM 23.0 °F 10.6 °F 12.2 °F 63% 30.05 in 10.0 mi ESE 13.8 mph 21.9 mph N/A   Clear
5:54 AM 23.0 °F 11.1 °F 14.0 °F 68% 30.04 in 10.0 mi SE 12.7 mph - N/A   Clear
6:14 AM 21.2 °F 7.8 °F 12.2 °F 68% 30.03 in 10.0 mi ESE 15.0 mph 23.0 mph N/A   Clear
6:34 AM 21.2 °F 8.3 °F 14.0 °F 74% 30.03 in 10.0 mi SE 13.8 mph - N/A   Clear
6:55 AM 21.2 °F 8.3 °F 15.8 °F 80% 30.03 in 10.0 mi SE 13.8 mph 21.9 mph N/A   Scattered Clouds
7:14 AM 21.2 °F 7.3 °F 15.8 °F 80% 30.02 in 10.0 mi ESE 16.1 mph 21.9 mph N/A   Scattered Clouds
7:35 AM 21.2 °F 6.4 °F 15.8 °F 80% 30.00 in 10.0 mi ESE 18.4 mph 25.3 mph N/A   Mostly Cloudy
7:54 AM 21.2 °F 8.3 °F 15.8 °F 80% 30.00 in 10.0 mi ESE 13.8 mph 23.0 mph N/A   Scattered Clouds
8:14 AM 21.2 °F 7.3 °F 15.8 °F 80% 30.00 in 10.0 mi ESE 16.1 mph 24.2 mph N/A   Scattered Clouds
8:35 AM 23.0 °F 9.6 °F 15.8 °F 74% 29.99 in 10.0 mi ESE 16.1 mph 21.9 mph N/A   Clear
8:54 AM 24.8 °F 10.7 °F 15.8 °F 69% 29.98 in 10.0 mi ESE 19.6 mph 24.2 mph N/A   Clear
9:14 AM 24.8 °F 11.5 °F 15.8 °F 69% 29.97 in 10.0 mi SE 17.3 mph 25.3 mph N/A   Clear
9:35 AM 24.8 °F 11.5 °F 17.6 °F 74% 29.95 in 10.0 mi ESE 17.3 mph 25.3 mph N/A   Clear
9:54 AM 26.6 °F 13.4 °F 17.6 °F 69% 29.93 in 10.0 mi ESE 18.4 mph 27.6 mph N/A   Clear
10:15 AM 26.6 °F 13.1 °F 17.6 °F 69% 29.92 in 10.0 mi ESE 19.6 mph 29.9 mph N/A   Clear
10:34 AM 26.6 °F 13.8 °F 19.4 °F 74% 29.91 in 10.0 mi ESE 17.3 mph 26.5 mph N/A   Scattered Clouds
10:54 AM 26.6 °F 12.7 °F 19.4 °F 74% 29.88 in 10.0 mi ESE 20.7 mph 26.5 mph N/A   Mostly Cloudy
11:15 AM 26.6 °F 13.1 °F 19.4 °F 74% 29.88 in 10.0 mi ESE 19.6 mph 26.5 mph N/A   Scattered Clouds
11:34 AM 26.6 °F 13.8 °F 19.4 °F 74% 29.87 in 10.0 mi ESE 17.3 mph 25.3 mph N/A   Clear
11:55 AM 28.4 °F 16.2 °F 19.4 °F 69% 29.85 in 10.0 mi ESE 17.3 mph 25.3 mph N/A   Clear
12:15 PM 28.4 °F 15.4 °F 19.4 °F 69% 29.83 in 10.0 mi East 19.6 mph 26.5 mph N/A   Clear
12:34 PM 28.4 °F 15.1 °F 19.4 °F 69% 29.80 in 10.0 mi ESE 20.7 mph 31.1 mph N/A   Clear
12:55 PM 30.2 °F 17.1 °F 19.4 °F 64% 29.78 in 10.0 mi East 21.9 mph 29.9 mph N/A   Clear
1:14 PM 30.2 °F 20.2 °F 19.4 °F 64% 29.77 in 10.0 mi ESE 12.7 mph 31.1 mph N/A   Clear
1:34 PM 32.0 °F 20.5 °F 19.4 °F 60% 29.75 in 10.0 mi East 18.4 mph 27.6 mph N/A   Clear
1:55 PM 32.0 °F 19.2 °F 19.4 °F 60% 29.73 in 10.0 mi East 23.0 mph 31.1 mph N/A   Clear
2:14 PM 33.8 °F 22.5 °F 19.4 °F 56% 29.72 in 10.0 mi ESE 19.6 mph 27.6 mph N/A   Clear
2:35 PM 33.8 °F 21.6 °F 21.2 °F 60% 29.70 in 10.0 mi ESE 23.0 mph 28.8 mph N/A   Clear
2:54 PM 33.8 °F 22.8 °F 21.2 °F 60% 29.69 in 10.0 mi East 18.4 mph 29.9 mph N/A   Clear
3:14 PM 33.8 °F 21.9 °F 21.2 °F 60% 29.67 in 10.0 mi East 21.9 mph 28.8 mph N/A   Clear
3:35 PM 33.8 °F 23.2 °F 21.2 °F 60% 29.64 in 10.0 mi East 17.3 mph 26.5 mph N/A   Clear
3:54 PM 33.8 °F 22.2 °F 21.2 °F 60% 29.63 in 10.0 mi East 20.7 mph 28.8 mph N/A   Clear
4:15 PM 32.0 °F 20.8 °F 21.2 °F 64% 29.61 in 10.0 mi East 17.3 mph 27.6 mph N/A   Mostly Cloudy
4:34 PM 32.0 °F 23.0 °F 21.2 °F 64% 29.60 in 10.0 mi East 11.5 mph 27.6 mph N/A   Overcast
5:14 PM 30.2 °F 18.9 °F 24.8 °F 80% 29.60 in 0.5 mi East 16.1 mph 29.9 mph N/A Snow Snow
5:34 PM 28.4 °F 16.6 °F 24.8 °F 86% 29.62 in 0.2 mi East 16.1 mph 23.0 mph N/A Snow Snow
5:55 PM 28.4 °F 16.6 °F 26.6 °F 93% 29.61 in 0.2 mi East 16.1 mph 27.6 mph N/A Snow Snow
6:14 PM 28.4 °F 16.6 °F 26.6 °F 93% 29.60 in 0.5 mi East 16.1 mph 24.2 mph N/A Snow Snow
6:34 PM 30.2 °F 18.5 °F 26.6 °F 86% 29.59 in 0.2 mi ESE 17.3 mph 23.0 mph N/A Snow Snow
6:55 PM 30.2 °F 18.9 °F 26.6 °F 86% 29.58 in 0.5 mi ESE 16.1 mph 23.0 mph N/A Snow Snow
7:14 PM 28.4 °F 17.0 °F 26.6 °F 93% 29.56 in 0.8 mi ESE 15.0 mph 25.3 mph N/A Snow Light Snow
7:35 PM 28.4 °F 16.6 °F 26.6 °F 93% 29.56 in 0.8 mi ESE 16.1 mph 19.6 mph N/A Snow Light Snow
7:54 PM 30.2 °F 19.8 °F 26.6 °F 86% 29.55 in 1.0 mi ESE 13.8 mph 20.7 mph N/A Snow Light Snow
8:15 PM 28.4 °F 16.6 °F 26.6 °F 93% 29.54 in 1.2 mi ESE 16.1 mph 21.9 mph N/A Snow Light Snow
8:34 PM 28.4 °F 18.0 °F 26.6 °F 93% 29.54 in 4.0 mi ESE 12.7 mph 21.9 mph N/A Snow Light Snow
8:55 PM 28.4 °F 19.1 °F 26.6 °F 93% 29.53 in 2.5 mi ESE 10.4 mph 18.4 mph N/A Snow Light Snow
9:14 PM 28.4 °F 18.0 °F 26.6 °F 93% 29.52 in 7.0 mi East 12.7 mph 17.3 mph N/A Snow Light Snow
9:35 PM 28.4 °F 19.7 °F 26.6 °F 93% 29.51 in 7.0 mi ESE 9.2 mph - N/A Snow Light Snow
9:54 PM 28.4 °F 19.1 °F 26.6 °F 93% 29.50 in 5.0 mi East 10.4 mph - N/A Snow Light Snow
10:15 PM 30.2 °F 21.9 °F 26.6 °F 86% 29.50 in 5.0 mi East 9.2 mph - N/A Snow Light Snow
10:34 PM 30.2 °F 23.4 °F 26.6 °F 86% 29.49 in 7.0 mi ESE 6.9 mph - N/A Snow Light Snow
10:54 PM 30.2 °F 22.6 °F 26.6 °F 86% 29.48 in 4.0 mi SE 8.1 mph - N/A Snow Light Snow
11:15 PM 30.2 °F 21.3 °F 28.4 °F 93% 29.46 in 4.0 mi SE 10.4 mph - N/A Snow Light Snow
11:55 PM 30.2 °F 21.3 °F 28.4 °F 93% 29.45 in 4.0 mi SSE 10.4 mph - N/A Snow Light Snow